DateTime,F1_A11,F1_S11,BsB_S11,BsG_S11,BsR_S11,BbsB_S11,BbsG_S11,BbsR_S11,BaB_A11,BaG_A11,BaR_A11,T_S11,U_S11,P_S11,T1_A11
2016-07-17T00:00:00Z,0000380,20000600,,,,,,,,,,27.3,06.2,0671.8,34.6
2016-07-17T00:01:00Z,0000380,20000600,,,,,,,,,,27.3,06.2,0671.8,34.6
2016-07-17T00:02:00Z,0000380,20000600,,,,,,,,,,27.3,06.2,0671.8,34.6
2016-07-17T00:03:00Z,0000380,60000600,,,,,,,,,,27.4,06.2,0671.8,34.6
2016-07-17T00:04:00Z,0000380,40000600,0002.26,0001.80,0000.96,-000.05,-000.08,0000.25,0000.18,-000.13,-000.20,27.5,06.1,0672.7,34.6
2016-07-17T00:05:00Z,0000380,00000600,0001.73,0000.91,0000.73,0000.08,-000.17,0000.36,0000.12,0000.04,0000.36,27.5,06.1,0672.8,34.6
2016-07-17T00:06:00Z,0000380,00000600,0003.63,0001.64,0001.17,0000.74,-000.09,0000.14,-000.05,0000.07,-000.22,27.6,06.1,0672.8,34.6
2016-07-17T00:07:00Z,0000380,00000600,0002.94,0001.66,0001.01,0000.85,-000.08,0000.58,0000.13,0000.09,0000.08,27.6,06.0,0672.8,34.6
2016-07-17T00:08:00Z,0000380,00000600,0001.55,0001.51,0001.11,0000.11,-000.06,0000.38,-000.01,0000.01,0000.24,27.7,06.0,0672.8,34.6
2016-07-17T00:09:00Z,0000380,00000600,0001.33,0001.38,0000.77,0000.09,0000.06,0000.27,-000.02,0000.15,-000.12,27.7,05.9,0672.8,34.6
2016-07-17T00:10:00Z,0000380,00000600,0003.18,0001.65,0000.48,0000.28,0000.53,0000.06,0000.15,0000.01,0000.38,27.7,06.0,0672.8,34.6
2016-07-17T00:11:00Z,0000380,00000600,0002.91,0000.66,0000.48,0000.60,-000.24,0000.28,-000.07,0000.11,-000.24,27.7,05.9,0672.8,34.6
2016-07-17T00:12:00Z,0000380,00000600,0001.61,0002.10,0000.95,0000.52,-000.28,0000.25,0000.16,-000.07,-000.13,27.7,05.9,0672.8,34.6
2016-07-17T00:13:00Z,0000380,00000600,0002.72,0001.45,0001.13,-000.28,-000.02,0000.33,0000.08,0000.08,0000.20,27.6,05.9,0672.8,34.6
2016-07-17T00:14:00Z,0000380,00000600,0002.65,0001.17,0001.00,0000.33,0000.14,0000.27,0000.02,0000.05,-000.07,27.6,06.0,0672.8,34.6
2016-07-17T00:15:00Z,0000380,00000600,0001.54,0002.00,0000.70,0000.08,-000.16,0000.13,0000.03,-000.01,0000.05,27.6,06.0,0672.8,34.6
2016-07-17T00:16:00Z,0000380,00000600,0002.68,0001.56,0000.91,0000.77,-000.13,0000.24,-000.11,0000.09,0000.25,27.6,05.9,0672.8,34.6
2016-07-17T00:17:00Z,0000380,00000600,0001.75,0001.74,0001.04,0000.36,0000.03,0000.14,0000.33,0000.07,0000.25,27.7,05.9,0672.8,34.6
2016-07-17T00:18:00Z,0000380,00000600,0002.09,0001.59,0001.13,-000.63,-000.20,0000.19,0000.10,0000.06,-000.10,27.7,05.9,0672.8,34.6
2016-07-17T00:19:00Z,0000380,00000600,0002.18,0001.41,0000.93,0000.85,0000.36,0000.33,0000.04,0000.31,-000.03,27.7,05.9,0672.8,34.6
2016-07-17T00:20:00Z,0000380,00000600,0002.38,0001.75,0000.34,0000.11,-000.30,0000.13,0000.12,0000.00,0000.34,27.7,06.0,0672.8,34.6
2016-07-17T00:21:00Z,0000380,00000600,0001.88,0001.41,0000.96,0000.17,-000.24,0000.16,0000.14,0000.04,-000.42,27.7,05.9,0672.8,34.6
2016-07-17T00:22:00Z,0000380,00000600,0002.26,0001.08,0000.55,0000.09,-000.25,0000.00,0000.10,0000.07,0000.51,27.7,05.9,0672.8,34.6
2016-07-17T00:23:00Z,0000380,00000600,0001.92,0000.85,0000.68,0000.32,-000.13,0000.38,0000.11,0000.20,-000.12,27.7,05.9,0672.8,34.6
2016-07-17T00:24:00Z,0000380,00000600,0001.80,0001.47,0001.07,-000.24,-000.20,0000.27,0000.06,-000.15,0000.08,27.7,05.9,0672.8,34.6
2016-07-17T00:25:00Z,0000380,00000600,0002.23,0001.21,0000.72,0000.17,-000.39,-000.19,-000.08,0000.28,0000.16,27.7,05.9,0672.8,34.6
2016-07-17T00:26:00Z,0000380,00000600,0001.88,0001.74,0000.79,0000.44,0000.22,-000.05,0000.17,-000.13,0000.19,27.7,05.8,0672.8,34.6
2016-07-17T00:27:00Z,0000380,00000600,0001.81,0001.58,0001.00,0000.00,0000.22,-000.03,-000.02,0000.07,-000.17,27.7,05.8,0672.8,34.6
2016-07-17T00:28:00Z,0000380,00000600,0002.60,0001.75,0000.81,0000.30,0000.33,0000.33,0000.15,0000.06,-000.01,27.7,05.8,0672.8,34.6
2016-07-17T00:29:00Z,0000380,00000600,0002.15,0002.01,0000.55,0000.25,-000.16,0000.02,-000.02,0000.08,-000.03,27.8,05.9,0672.8,34.6
2016-07-17T00:30:00Z,0000380,00000600,0002.71,0001.42,0000.62,0000.06,-000.46,0000.58,0000.02,0000.04,-000.02,27.8,05.8,0672.8,34.6
2016-07-17T00:31:00Z,0000380,00000600,0001.37,0000.92,0000.64,0000.30,0000.19,0000.05,0000.05,0000.26,0000.44,27.8,05.8,0672.8,34.6
2016-07-17T00:32:00Z,0000380,00000600,0002.73,0002.03,0000.14,0000.03,-000.52,0000.08,-000.04,-000.02,-000.23,27.8,05.8,0672.8,34.6
2016-07-17T00:33:00Z,0000380,00000600,0002.37,0001.69,0001.10,0000.38,-000.27,0000.49,0000.14,-000.01,0000.09,27.7,05.7,0672.8,34.6
2016-07-17T00:34:00Z,0000380,00000600,0002.19,0000.96,0000.38,-000.03,-000.14,0000.08,0000.12,-000.04,0000.10,27.7,05.7,0672.8,34.6
2016-07-17T00:35:00Z,0000380,00000600,0003.03,0001.13,0000.90,0000.76,0000.11,0000.30,0000.07,0000.05,0000.15,27.7,05.8,0672.8,34.6
2016-07-17T00:36:00Z,0000380,00000600,0002.17,0001.14,0000.54,-000.80,-000.13,0000.32,0000.03,-000.07,-000.07,27.7,05.7,0672.8,34.6
2016-07-17T00:37:00Z,0000380,00000600,0001.97,0001.68,0000.71,0000.30,-000.31,-000.16,0000.08,0000.15,-000.09,27.7,05.8,0672.8,34.6
2016-07-17T00:38:00Z,0000380,00000600,0002.71,0001.41,0000.36,0000.47,0000.06,0000.39,0000.04,0000.27,0000.32,27.8,05.7,0672.8,34.6
2016-07-17T00:39:00Z,0000380,00000600,0002.01,0001.52,0001.40,0000.33,0000.05,0000.66,0000.20,-000.04,-000.19,27.8,05.7,0672.8,34.6
2016-07-17T00:40:00Z,0000380,00000600,0001.69,0001.20,0000.91,-000.13,-000.22,0000.43,-000.19,-000.02,0000.04,27.8,05.6,0672.8,34.6
2016-07-17T00:41:00Z,0000380,00000600,0002.40,0001.63,0001.49,0000.49,-000.02,0000.60,0000.09,0000.17,0000.32,27.8,05.6,0672.8,34.6
2016-07-17T00:42:00Z,0000380,00000600,0002.80,0002.09,0001.34,0000.27,0000.20,0000.08,0000.16,0000.04,-000.12,27.8,05.6,0672.8,34.6
2016-07-17T00:43:00Z,0000380,00000600,0002.14,0001.56,0001.19,0000.60,0000.06,0000.03,0000.09,0000.11,0000.08,27.8,05.6,0672.8,34.6
2016-07-17T00:44:00Z,0000380,00000600,0002.08,0001.44,0000.96,0000.09,-000.03,0000.09,0000.08,0000.02,0000.46,27.8,05.6,0672.8,34.6
2016-07-17T00:45:00Z,0000380,00000600,0002.68,0002.19,0000.62,-000.19,0000.28,0000.14,-000.06,-000.04,-000.28,27.8,05.6,0672.9,34.6
2016-07-17T00:46:00Z,0000380,00000600,0002.95,0000.99,0000.57,0000.09,-000.06,0000.14,0000.16,0000.18,0000.02,27.7,05.6,0672.9,34.6
2016-07-17T00:47:00Z,0000380,00000600,0002.16,0001.68,0000.45,0000.49,0000.22,0000.00,0000.13,-000.21,0000.08,27.8,05.7,0672.9,34.6
2016-07-17T00:48:00Z,0000380,00000600,0002.26,0001.50,0000.48,0000.03,0000.02,0000.49,-000.06,0000.21,-000.06,27.8,05.7,0672.9,34.6
2016-07-17T00:49:00Z,0000380,00000600,0002.66,0001.45,0000.75,-000.06,0000.00,0000.30,0000.04,-000.05,0000.18,27.8,05.7,0672.9,34.6
2016-07-17T00:50:00Z,0000380,00000600,0003.06,0001.49,0001.02,0000.69,0000.13,0000.52,0000.17,0000.33,0000.09,27.8,05.6,0672.8,34.6
2016-07-17T00:51:00Z,0000380,00000600,0002.22,0001.03,0001.16,0000.11,-000.08,0000.05,0000.13,0000.16,0000.23,27.8,05.6,0672.8,34.6
2016-07-17T00:52:00Z,0000380,00000600,0002.22,0001.54,0001.04,0000.57,-000.02,0000.43,0000.12,-000.02,-000.02,27.8,05.7,0672.8,34.6
2016-07-17T00:53:00Z,0000380,00000600,0003.09,0001.56,0001.09,-000.08,0000.17,0000.46,0000.06,0000.14,0000.04,27.8,05.8,0672.8,34.6
2016-07-17T00:54:00Z,0000380,00000600,0002.07,0001.69,0000.57,0000.14,0000.08,0000.27,0000.02,0000.09,0000.09,27.8,05.8,0672.8,34.6
2016-07-17T00:55:00Z,0000380,00000600,0002.20,0001.46,0000.81,0000.57,0000.24,0000.43,0000.09,-000.01,-000.00,27.8,05.7,0672.8,34.6
2016-07-17T00:56:00Z,0000380,00000600,0002.18,0001.61,0001.24,-000.54,0000.22,0000.60,0000.02,0000.04,0000.34,27.8,05.7,0672.8,34.6
2016-07-17T00:57:00Z,0000380,40000600,,,,,,,,,,,,0672.9,34.6
2016-07-17T00:58:00Z,0000380,60000600,,,,,,,,,,27.5,05.7,0671.8,34.6
2016-07-17T00:59:00Z,0000380,20000600,,,,,,,,,,27.5,05.7,0671.8,34.6
2016-07-17T01:00:00Z,0000380,20000600,,,,,,,,,,27.5,05.7,0671.8,34.6
2016-07-17T01:01:00Z,0000380,20000600,,,,,,,,,,27.5,05.7,0671.8,34.6
2016-07-17T01:02:00Z,0000380,20000600,,,,,,,,,,27.5,05.7,0671.8,34.6
2016-07-17T01:03:00Z,0000380,60000600,,,,,,,,,,27.6,05.7,0671.8,34.6
2016-07-17T01:04:00Z,0000380,40000600,0001.95,0001.52,0000.87,0000.11,0000.39,0000.41,-000.00,0000.17,-000.26,27.8,05.6,0672.7,34.6
2016-07-17T01:05:00Z,0000380,00000600,0001.04,0001.35,0001.09,0000.57,0000.05,0000.08,-000.03,-000.03,0000.34,27.8,05.6,0672.8,34.6
2016-07-17T01:06:00Z,0000380,00000600,0001.39,0001.34,0000.55,0001.06,0000.03,0000.21,0000.17,0000.08,0000.06,27.7,05.6,0672.8,34.6
2016-07-17T01:07:00Z,0000380,00000600,0002.43,0001.18,0000.95,0000.36,0000.19,-000.05,-000.06,-000.08,-000.10,27.8,05.5,0672.8,34.6
2016-07-17T01:08:00Z,0000380,00000600,0002.10,0001.21,0000.68,-000.09,0000.05,0000.47,0000.17,0000.14,0000.21,27.8,05.5,0672.8,34.6
2016-07-17T01:09:00Z,0000380,00000600,0001.20,0002.16,0000.54,-000.02,0000.28,0000.14,-000.04,-000.07,0000.00,27.8,05.6,0672.8,34.6
2016-07-17T01:10:00Z,0000380,00000600,0001.99,0001.74,0000.46,0000.24,-000.28,0000.16,0000.12,0000.15,0000.01,27.8,05.5,0672.8,34.6
2016-07-17T01:11:00Z,0000380,00000600,0001.30,0001.53,0000.26,0000.11,-000.14,0000.08,0000.17,0000.04,0000.10,27.8,05.4,0672.8,34.6
2016-07-17T01:12:00Z,0000380,00000600,0002.36,0001.22,0000.66,0000.60,0000.30,-000.03,0000.07,0000.08,0000.00,27.8,05.3,0672.8,34.6
2016-07-17T01:13:00Z,0000380,00000600,0002.17,0001.32,0000.34,0000.63,0000.05,-000.28,-000.05,0000.08,0000.09,27.8,05.4,0672.8,34.6
2016-07-17T01:14:00Z,0000380,00000600,0001.80,0001.93,0000.28,-000.44,0000.61,-000.03,0000.05,0000.04,0000.22,27.8,05.4,0672.8,34.6
2016-07-17T01:15:00Z,0000380,00000600,0001.55,0001.88,0000.89,0000.46,0000.44,0000.28,0000.06,-000.03,-000.08,27.7,05.4,0672.8,34.6
2016-07-17T01:16:00Z,0000380,00000600,0001.95,0001.40,0000.13,-000.19,0000.19,-000.49,0000.28,-000.06,0000.13,27.8,05.4,0672.8,34.6
2016-07-17T01:17:00Z,0000380,00000600,0001.49,0001.31,0000.34,0000.24,0000.57,-000.08,-000.09,0000.14,0000.07,27.7,05.4,0672.8,34.6
2016-07-17T01:18:00Z,0000380,00000600,0001.81,0001.49,0000.54,-000.08,-000.14,-000.16,-000.02,-000.08,0000.08,27.7,05.4,0672.8,34.6
2016-07-17T01:19:00Z,0000380,00000600,0001.65,0001.88,0000.90,0000.03,0000.02,0000.21,0000.13,0000.30,-000.24,27.8,05.3,0672.8,34.6
2016-07-17T01:20:00Z,0000380,00000600,0001.92,0001.22,0000.89,0000.28,0000.31,-000.32,-000.04,-000.20,0000.20,27.8,05.3,0672.8,34.6
2016-07-17T01:21:00Z,0000380,00000600,0001.39,0001.28,0001.00,0000.11,-000.03,0000.27,0000.16,0000.23,0000.24,27.8,05.3,0672.8,34.6
2016-07-17T01:22:00Z,0000380,00000600,0002.03,0001.04,0000.84,0000.62,0000.06,0000.11,-000.03,0000.23,-000.33,27.8,05.3,0672.8,34.6
2016-07-17T01:23:00Z,0000380,00000600,0001.52,0001.76,0000.37,-000.11,-000.17,-000.11,0000.21,0000.07,0000.27,27.8,05.3,0672.8,34.6
2016-07-17T01:24:00Z,0000380,00000600,0001.09,0000.82,0000.69,-000.03,-000.03,0000.22,-000.07,-000.09,0000.35,27.8,05.2,0672.8,34.6
2016-07-17T01:25:00Z,0000380,00000600,0000.68,0001.82,0000.93,0000.00,0000.03,0000.16,0000.10,-000.03,-000.23,27.8,05.2,0672.8,34.6
2016-07-17T01:26:00Z,0000380,00000600,0001.64,0001.90,0000.66,0000.47,0000.58,0000.32,0000.11,0000.02,-000.08,27.7,05.1,0672.8,34.6
2016-07-17T01:27:00Z,0000380,00000600,0001.52,0001.32,0000.91,0000.60,0000.02,0000.11,-000.10,0000.17,-000.10,27.7,05.1,0672.8,34.6
2016-07-17T01:28:00Z,0000380,00000600,0002.06,0000.79,0000.62,0000.00,0000.11,-000.02,0000.11,-000.12,0000.12,27.8,05.1,0672.8,34.6
2016-07-17T01:29:00Z,0000380,00000600,0000.99,0001.45,0000.32,-000.55,0000.11,-000.05,0000.10,0000.08,0000.22,27.8,05.1,0672.8,34.6
2016-07-17T01:30:00Z,0000380,00000600,0001.88,0001.16,0000.70,-000.22,0000.00,0000.17,0000.15,0000.19,0000.06,27.8,05.1,0672.7,34.6
2016-07-17T01:31:00Z,0000380,00000600,0001.49,0002.64,0000.62,0000.33,0000.57,0000.32,-000.05,-000.01,-000.13,27.8,05.1,0672.8,34.6
2016-07-17T01:32:00Z,0000380,00000600,0000.79,0002.32,0001.03,0001.06,0000.16,0000.13,0000.04,-000.04,-000.06,27.8,05.0,0672.8,34.6
2016-07-17T01:33:00Z,0000380,00000600,0002.75,0001.01,0000.83,-000.38,0000.05,-000.39,-000.01,-000.04,0000.10,27.8,04.9,0672.8,34.6
2016-07-17T01:34:00Z,0000380,00000600,0001.89,0000.74,0000.87,0000.25,-000.14,0000.24,0000.07,0000.24,0000.25,27.8,04.9,0672.8,34.6
2016-07-17T01:35:00Z,0000380,00000600,0002.22,0001.32,0000.84,0000.16,-000.27,-000.41,0000.07,-000.09,-000.49,27.7,04.8,0672.8,34.6
2016-07-17T01:36:00Z,0000380,00000600,0001.68,0001.26,0001.08,0000.05,0000.25,0000.51,-000.06,0000.05,0000.61,27.7,04.8,0672.8,34.6
2016-07-17T01:37:00Z,0000380,00000600,0001.59,0000.79,0000.64,0000.28,0000.08,0000.06,0000.05,-000.07,-000.26,27.7,04.7,0672.8,34.6
2016-07-17T01:38:00Z,0000380,00000600,0002.47,0001.34,0001.02,-000.11,0000.06,0000.11,0000.18,0000.05,0000.12,27.7,04.8,0672.8,34.6
2016-07-17T01:39:00Z,0000380,00000600,0001.31,0001.93,0001.06,0000.02,0000.11,0000.13,-000.12,0000.02,-000.04,27.7,04.8,0672.8,34.6
2016-07-17T01:40:00Z,0000380,00000600,0002.20,0001.46,0001.12,0000.35,0000.17,0000.17,0000.18,0000.21,0000.31,27.8,04.8,0672.8,34.6
2016-07-17T01:41:00Z,0000380,00000600,0001.82,0001.93,0001.14,0000.02,-000.17,-000.11,0000.13,0000.16,-000.14,27.8,04.7,0672.8,34.6
2016-07-17T01:42:00Z,0000380,00000600,0001.53,0001.89,0000.82,0000.05,0000.13,-000.05,0000.11,-000.07,0000.06,27.8,04.7,0672.8,34.6
2016-07-17T01:43:00Z,0000380,00000600,0002.09,0001.46,0000.81,0000.28,0000.00,-000.24,-000.01,0000.26,0000.14,27.7,04.8,0672.8,34.6
2016-07-17T01:44:00Z,0000380,00000600,0002.76,0001.86,0001.48,-000.44,0000.14,0000.30,0000.28,-000.02,0000.14,27.7,04.8,0672.8,34.6
2016-07-17T01:45:00Z,0000380,00000600,0002.14,0001.86,0001.34,0000.30,-000.11,0000.17,-000.20,-000.05,-000.27,27.7,04.7,0672.8,34.6
2016-07-17T01:46:00Z,0000380,00000600,0000.99,0001.95,0000.52,0000.65,-000.24,-000.14,0000.12,0000.00,0000.18,27.7,04.7,0672.8,34.6
2016-07-17T01:47:00Z,0000380,00000600,0001.92,0002.10,0000.83,-000.22,0000.31,-000.11,-000.03,0000.04,-000.20,27.7,04.6,0672.8,34.6
2016-07-17T01:48:00Z,0000380,00000600,0002.28,0001.03,0001.01,0000.80,0000.22,0000.30,0000.15,0000.11,0000.34,27.7,04.7,0672.8,34.6
2016-07-17T01:49:00Z,0000380,00000600,0001.95,0001.85,0000.74,0000.09,0000.17,-000.16,-000.08,0000.02,-000.03,27.7,04.7,0672.8,34.6
2016-07-17T01:50:00Z,0000380,00000600,0002.53,0002.10,0001.03,0000.13,0000.22,0000.38,0000.06,0000.11,0000.20,27.8,04.7,0672.7,34.6
2016-07-17T01:51:00Z,0000380,00000600,0001.55,0001.03,0000.55,0000.55,-000.11,-000.13,0000.10,-000.05,0000.23,27.8,04.6,0672.8,34.6
2016-07-17T01:52:00Z,0000380,00000600,0002.50,0001.70,0000.80,0000.13,0000.46,-000.27,0000.19,0000.21,-000.18,27.8,04.7,0672.8,34.6
2016-07-17T01:53:00Z,0000380,00000600,0003.24,0001.12,0001.04,0000.28,0000.11,0000.11,0000.18,0000.08,-000.01,27.8,04.7,0672.8,34.6
2016-07-17T01:54:00Z,0000380,00000600,0002.47,0002.17,0000.61,0000.50,0000.30,-000.16,-000.16,0000.08,0000.26,27.8,04.7,0672.8,34.6
2016-07-17T01:55:00Z,0000380,00000600,0001.66,0001.51,0000.50,0000.13,-000.06,-000.14,0000.21,0000.07,0000.08,27.7,04.6,0672.8,34.6
2016-07-17T01:56:00Z,0000380,00000600,0002.37,0001.81,0000.41,0000.05,0000.13,0000.25,-000.00,0000.08,0000.13,27.7,04.7,0672.8,34.6
2016-07-17T01:57:00Z,0000380,40000600,,,,,,,,,,,,0672.7,34.6
2016-07-17T01:58:00Z,0000380,60000600,,,,,,,,,,27.5,04.8,0671.8,34.6
2016-07-17T01:59:00Z,0000380,20000600,,,,,,,,,,27.5,04.8,0671.7,34.6
2016-07-17T02:00:00Z,0000380,20000600,,,,,,,,,,27.5,04.8,0671.7,34.6
2016-07-17T02:01:00Z,0000380,20000600,,,,,,,,,,27.5,04.8,0671.7,34.6
2016-07-17T02:02:00Z,0000380,20000600,,,,,,,,,,27.5,04.7,0671.7,34.6
2016-07-17T02:03:00Z,0000380,60000600,,,,,,,,,,27.6,04.6,0671.7,34.6
2016-07-17T02:04:00Z,0000380,40000600,0002.89,0001.72,0001.55,0000.69,0000.20,0000.57,-000.04,0000.01,-000.05,27.8,04.7,0672.7,34.6
2016-07-17T02:05:00Z,0000380,00000600,0002.66,0001.91,0001.41,0000.65,0000.17,0000.33,0000.01,0000.17,0000.24,27.8,04.7,0672.8,34.6
2016-07-17T02:06:00Z,0000380,00000600,0001.98,0001.79,0000.69,0000.27,0000.22,-000.05,0000.42,0000.03,0000.03,27.8,04.8,0672.8,34.6
2016-07-17T02:07:00Z,0000380,00000600,0002.66,0001.68,0001.15,0000.90,0000.13,0000.02,0000.01,0000.08,0000.14,27.8,04.7,0672.7,34.6
2016-07-17T02:08:00Z,0000380,00000600,0002.79,0002.02,0001.27,0000.90,0000.17,0000.25,-000.15,0000.08,0000.17,27.8,04.7,0672.7,34.6
2016-07-17T02:09:00Z,0000380,00000600,0003.17,0001.43,0001.47,-000.13,0000.16,0000.13,0000.16,-000.04,-000.03,27.8,04.7,0672.7,34.6
2016-07-17T02:10:00Z,0000380,00000600,0001.72,0002.44,0001.00,0000.16,0000.27,-000.27,-000.07,0000.14,0000.21,27.8,04.7,0672.7,34.6
2016-07-17T02:11:00Z,0000380,00000600,0001.97,0001.66,0001.23,-000.05,0000.08,0000.09,0000.22,0000.24,0000.18,27.9,04.7,0672.7,34.6
2016-07-17T02:12:00Z,0000380,00000600,0002.73,0002.13,0001.25,0000.17,0000.50,0000.27,0000.07,0000.05,-000.31,27.9,04.7,0672.7,34.6
2016-07-17T02:13:00Z,0000380,00000600,0001.99,0001.44,0000.93,0000.95,0000.69,-000.19,0000.10,0000.11,0000.21,27.9,04.6,0672.7,34.6
2016-07-17T02:14:00Z,0000380,00000600,0002.48,0001.26,0000.65,0000.55,0000.52,-000.09,-000.02,-000.02,-000.27,27.8,04.7,0672.8,34.6
2016-07-17T02:15:00Z,0000380,00000600,0002.16,0002.19,0000.75,-000.09,0000.97,-000.05,0000.13,0000.00,0000.51,27.8,04.7,0672.7,34.6
2016-07-17T02:16:00Z,0000380,00000600,0002.53,0001.74,0000.87,0000.54,0000.38,-000.11,-000.03,0000.01,-000.09,27.8,04.6,0672.7,34.6
2016-07-17T02:17:00Z,0000380,00000600,0001.46,0001.59,0000.98,-000.08,-000.06,0000.19,-000.03,-000.05,-000.18,27.8,04.6,0672.7,34.6
2016-07-17T02:18:00Z,0000380,00000600,0002.66,0001.27,0001.23,0000.62,0000.27,-000.02,0000.27,0000.13,0000.39,27.8,04.6,0672.7,34.6
2016-07-17T02:19:00Z,0000380,00000600,0002.48,0001.41,0000.70,0000.21,-000.08,0000.25,0000.06,-000.05,0000.07,27.8,04.7,0672.7,34.6
2016-07-17T02:20:00Z,0000380,00000600,0002.51,0002.15,0000.57,0000.25,0000.46,-000.06,0000.09,0000.11,-000.26,27.8,04.6,0672.7,34.6
2016-07-17T02:21:00Z,0000380,00000600,0002.50,0001.46,0001.05,-000.02,0000.06,-000.08,0000.00,0000.26,0000.36,27.8,04.6,0672.7,34.6
2016-07-17T02:22:00Z,0000380,00000600,0002.16,0001.54,0000.79,0000.02,0000.41,-000.17,0000.01,0000.02,0000.10,27.9,04.6,0672.7,34.6
2016-07-17T02:23:00Z,0000380,00000600,0002.10,0000.95,0001.02,-000.58,0000.16,0000.51,0000.08,0000.22,-000.11,27.9,04.7,0672.7,34.6
2016-07-17T02:24:00Z,0000380,00000600,0001.36,0001.46,0001.35,-000.08,0000.27,0000.30,0000.10,-000.06,0000.10,27.9,04.7,0672.7,34.6
2016-07-17T02:25:00Z,0000380,00000600,0002.27,0001.75,0000.70,0000.13,0000.31,-000.11,0000.03,0000.10,0000.15,27.8,04.6,0672.7,34.6
2016-07-17T02:26:00Z,0000380,00000600,0001.64,0001.57,0001.24,0000.76,-000.36,0000.24,0000.09,0000.12,-000.10,27.8,04.7,0672.7,34.6
2016-07-17T02:27:00Z,0000380,00000600,0003.03,0001.60,0000.88,0000.39,0000.25,-000.02,0000.22,-000.07,0000.06,27.8,04.7,0672.7,34.6
2016-07-17T02:28:00Z,0000380,00000600,0002.03,0001.58,0001.24,0001.17,0000.22,0000.19,-000.22,-000.01,-000.05,27.8,04.6,0672.7,34.6
2016-07-17T02:29:00Z,0000380,00000600,0001.46,0000.97,0000.76,0000.47,-000.13,-000.02,0000.09,0000.17,0000.20,27.8,04.6,0672.7,34.6
2016-07-17T02:30:00Z,0000380,00000600,0001.52,0001.44,0000.67,0000.46,0000.50,0000.24,0000.16,-000.05,-000.33,27.8,04.6,0672.7,34.6
2016-07-17T02:31:00Z,0000380,00000600,0002.44,0001.08,0001.39,0000.87,0000.19,0000.16,0000.13,0000.15,0000.54,27.9,04.6,0672.7,34.6
2016-07-17T02:32:00Z,0000380,00000600,0002.48,0001.61,0000.53,0000.68,0000.31,-000.16,0000.13,0000.04,-000.11,27.9,04.7,0672.7,34.6
2016-07-17T02:33:00Z,0000380,00000600,0001.40,0001.41,0000.57,-000.08,0000.38,0000.21,0000.11,0000.07,-000.01,27.9,04.7,0672.7,34.6
2016-07-17T02:34:00Z,0000380,00000600,0001.26,0001.34,0000.42,0000.71,0000.06,0000.25,-000.10,0000.02,0000.25,27.9,04.6,0672.7,34.6
2016-07-17T02:35:00Z,0000380,00000600,0001.72,0001.10,0000.83,0000.62,0000.11,-000.02,0000.13,0000.15,0000.04,27.9,04.6,0672.7,34.6
2016-07-17T02:36:00Z,0000380,00000600,0002.48,0001.59,0000.97,-000.05,0000.80,-000.22,0000.04,-000.09,-000.16,27.8,04.6,0672.7,34.6
2016-07-17T02:37:00Z,0000380,00000600,0002.31,0001.23,0001.20,0000.77,0000.28,0000.47,-000.07,0000.02,0000.28,27.8,04.7,0672.7,34.6
2016-07-17T02:38:00Z,0000380,00000600,0002.27,0001.81,0001.26,0000.47,0000.24,-000.02,0000.15,0000.08,-000.08,27.8,04.7,0672.7,34.6
2016-07-17T02:39:00Z,0000380,00000600,0002.18,0001.37,0001.23,0000.28,-000.38,-000.03,-000.02,0000.03,0000.11,27.8,04.6,0672.7,34.6
2016-07-17T02:40:00Z,0000380,00000600,0002.83,0001.65,0000.49,0000.85,0000.14,0000.03,0000.07,0000.06,0000.21,27.8,04.7,0672.7,34.6
2016-07-17T02:41:00Z,0000380,00000600,0001.35,0001.23,0000.41,0000.25,0000.49,-000.03,0000.12,0000.16,-000.13,27.9,04.7,0672.7,34.6
2016-07-17T02:42:00Z,0000380,00000600,0002.53,0001.17,0000.94,0000.87,0000.09,-000.09,0000.12,0000.09,0000.30,27.9,04.7,0672.7,34.6
2016-07-17T02:43:00Z,0000380,00000600,0002.18,0001.22,0001.28,0000.87,0000.19,0000.33,-000.18,0000.04,-000.14,27.9,04.6,0672.7,34.6
2016-07-17T02:44:00Z,0000380,00000600,0001.96,0001.13,0000.80,0000.76,0000.19,0000.24,0000.12,0000.09,-000.07,27.9,04.7,0672.8,34.6
2016-07-17T02:45:00Z,0000380,00000600,0002.41,0000.69,0001.08,0000.05,0000.36,-000.25,0000.23,0000.14,0000.05,27.9,04.7,0672.8,34.6
2016-07-17T02:46:00Z,0000380,00000600,0002.64,0000.56,0001.10,0000.65,0000.31,0000.08,0000.16,-000.04,-000.15,27.8,04.7,0672.7,34.6
2016-07-17T02:47:00Z,0000380,00000600,0001.72,0001.31,0000.56,0000.32,0000.03,0000.17,-000.22,-000.08,0000.34,27.8,04.7,0672.8,34.6
2016-07-17T02:48:00Z,0000380,00000600,0001.42,0001.59,0000.45,0000.60,0000.30,0000.60,0000.24,0000.17,-000.01,27.9,04.8,0672.7,34.6
2016-07-17T02:49:00Z,0000380,00000600,0002.90,0002.07,0000.48,0000.28,0000.09,0000.06,0000.21,-000.03,0000.01,27.9,04.8,0672.7,34.6
2016-07-17T02:50:00Z,0000380,00000600,0001.27,0001.33,0000.83,0000.38,-000.16,0000.32,-000.09,0000.03,0000.27,27.9,04.7,0672.7,34.6
2016-07-17T02:51:00Z,0000380,00000600,0001.25,0001.91,0000.93,0000.71,0000.27,0000.21,-000.15,0000.06,0000.02,27.9,04.8,0672.7,34.6
2016-07-17T02:52:00Z,0000380,00000600,0001.92,0001.20,0000.88,0000.02,0000.24,-000.08,0000.41,0000.30,0000.10,28.0,04.9,0672.7,34.6
2016-07-17T02:53:00Z,0000380,00000600,0002.62,0001.18,0000.71,0000.38,0000.16,-000.06,-000.03,-000.06,-000.20,28.0,04.8,0672.7,34.6
2016-07-17T02:54:00Z,0000380,00000600,0002.30,0001.56,0000.74,0000.55,0000.41,0000.14,0000.10,0000.15,0000.18,28.0,04.9,0672.7,34.6
2016-07-17T02:55:00Z,0000380,00000600,0002.28,0001.04,0001.15,0000.38,0000.00,0000.09,-000.04,0000.06,0000.19,27.9,04.8,0672.7,34.6
2016-07-17T02:56:00Z,0000380,00000600,0001.12,0000.94,0001.29,0000.57,-000.44,-000.05,-000.11,0000.05,0000.00,27.9,04.8,0672.7,34.6
2016-07-17T02:57:00Z,0000380,40000600,,,,,,,,,,,,0672.7,34.6
2016-07-17T02:58:00Z,0000380,60000600,,,,,,,,,,27.8,04.9,0671.7,34.6
2016-07-17T02:59:00Z,0000380,20000600,,,,,,,,,,27.8,05.0,0671.6,34.6
2016-07-17T03:00:00Z,0000380,20000600,,,,,,,,,,27.8,05.0,0671.6,34.6
2016-07-17T03:01:00Z,0000380,20000600,,,,,,,,,,27.8,05.0,0671.6,34.6
2016-07-17T03:02:00Z,0000380,20000600,,,,,,,,,,27.8,05.0,0671.6,34.6
2016-07-17T03:03:00Z,0000380,60000600,,,,,,,,,,27.8,05.0,0671.6,34.6
2016-07-17T03:04:00Z,0000380,40000600,0001.51,0000.82,0001.33,-000.05,0000.20,0000.13,0000.13,0000.11,-000.04,28.0,05.1,0672.6,34.6
2016-07-17T03:05:00Z,0000380,00000600,0002.17,0000.96,0001.22,0000.13,0000.14,0000.33,-000.07,-000.05,-000.04,28.0,04.9,0672.7,34.6
2016-07-17T03:06:00Z,0000380,00000600,0002.64,0001.71,0000.48,-000.14,-000.17,-000.14,0000.04,0000.10,0000.16,27.9,05.0,0672.7,34.6
2016-07-17T03:07:00Z,0000380,00000600,0001.43,0001.66,0001.12,0000.25,0000.00,0000.38,0000.11,-000.18,0000.01,28.0,04.9,0672.7,34.6
2016-07-17T03:08:00Z,0000380,00000600,0001.59,0001.18,0001.00,0000.30,0000.60,-000.13,-000.12,0000.09,-000.02,28.0,04.9,0672.7,34.6
2016-07-17T03:09:00Z,0000380,00000600,0002.08,0001.29,0000.23,0000.19,-000.11,0000.00,0000.13,0000.00,0000.22,28.0,05.0,0672.7,34.6
2016-07-17T03:10:00Z,0000380,00000600,0002.51,0000.93,0000.40,-000.16,0000.11,-000.25,0000.02,0000.14,-000.16,28.0,04.9,0672.7,34.6
2016-07-17T03:11:00Z,0000380,00000600,0001.84,0000.87,0000.72,-000.33,-000.06,-000.14,-000.12,-000.07,-000.17,28.0,04.9,0672.7,34.6
2016-07-17T03:12:00Z,0000380,00000600,0001.54,0001.00,0000.31,0000.28,0000.28,-000.44,0000.28,0000.05,0000.39,28.0,04.9,0672.7,34.6